Date,TemperatureHighF,TemperatureAvgF,TemperatureLowF,DewpointHighF,DewpointAvgF,DewpointLowF,HumidityHigh,HumidityAvg,HumidityLow,PressureMaxIn,PressureMinIn,WindSpeedMaxMPH,WindSpeedAvgMPH,GustSpeedMaxMPH,PrecipitationSumIn
2013-4-1,45,40,36,33,30,28,81,69,56,29.88,29.72,13,9,31,0.00
2013-4-2,50,42,36,32,29,21,76,62,33,30.14,29.88,9,6,22,0.00
2013-4-3,50,40,30,35,29,24,92,67,40,30.23,30.14,9,5,22,0.00
2013-4-4,49,39,31,33,29,23,87,68,49,30.25,30.19,12,5,24,0.00
2013-4-5,51,41,32,37,32,29,88,73,48,30.27,30.21,8,3,16,0.00
2013-4-6,53,42,33,37,33,29,91,71,40,30.31,30.16,8,3,14,0.00
2013-4-7,48,43,37,38,35,32,84,74,60,30.16,29.74,11,6,23,0.00
2013-4-8,50,45,38,37,35,32,84,69,55,29.74,29.41,13,8,28,0.00
2013-4-9,48,44,38,37,36,34,86,74,63,29.59,29.41,11,7,24,0.00
2013-4-10,55,46,40,47,42,35,93,85,66,29.59,29.40,7,3,15,0.09
2013-4-11,54,47,43,48,45,42,97,91,73,29.39,29.22,7,4,17,0.37
2013-4-12,53,47,41,45,42,38,97,86,69,29.67,29.30,7,3,15,0.06
2013-4-13,55,46,37,53,44,36,97,94,86,29.66,29.26,11,5,27,0.30
2013-4-14,58,52,50,51,48,46,97,87,72,29.47,29.26,19,11,40,0.17
2013-4-15,60,51,48,50,48,45,97,88,65,29.74,29.31,19,11,37,0.19
2013-4-16,55,50,46,47,44,41,90,81,66,29.88,29.30,27,15,52,0.03
2013-4-17,59,52,46,54,49,42,98,91,75,29.82,29.08,19,10,33,1.00
2013-4-18,53,47,43,47,44,41,97,89,75,30.18,29.27,19,12,35,0.25
2013-4-19,54,48,42,47,43,40,94,84,68,30.45,30.19,14,7,21,0.01
2013-4-20,56,50,45,47,45,43,92,81,63,30.45,30.14,17,8,29,0.00
2013-4-21,54,49,45,48,45,42,95,86,67,30.13,29.98,15,9,30,0.39
2013-4-22,55,51,47,53,49,44,99,94,85,29.99,29.82,18,11,29,0.06
2013-4-23,57,53,50,53,50,48,97,91,78,30.15,29.97,15,8,22,0.04
2013-4-24,55,50,44,54,48,42,99,93,83,30.25,30.03,14,6,24,0.31
2013-4-25,56,47,41,47,42,38,98,86,59,30.24,30.16,13,5,21,0.12
2013-4-26,51,43,39,42,38,36,93,83,63,30.24,30.17,12,6,28,0.10
2013-4-27,54,47,40,41,39,36,89,74,55,30.25,30.14,8,6,18,0.00
2013-4-28,55,49,43,48,43,38,97,82,61,30.14,29.94,14,9,28,0.07
2013-4-29,56,47,40,45,41,37,91,79,58,30.30,29.98,13,7,26,0.06
2013-4-30,55,47,39,45,41,37,93,80,61,30.37,30.29,13,5,19,0.00